CZ-6A DEB, 56677

Orbit data source: Space-Track

CZ-6A DEB, 56677 is space debris in SSO originally from a launch on Fri, 11 Nov 2022 UTC launched from the Taiyaun Space Center, China (TSC). Debris objects in space refer to the collection of defunct objects orbiting the Earth. Examples of debris include non-operational satellites, rocket bodies, and fragments generated from explosions, collisions, or faulty payload assembly.

Loading next visibility...
Identifier
56677, 2022-151AHD
Orbit
SSO
Country
Flag of CNCN / PRC
Related business
Manufacturer
SAST
Mission
Spacecraft
Bus & Motor
Unknown
Mass
Unknown
Launch date (UTC)
2022-11-11 (4 years ago)
Launch vehicle
Unknown
Launch site
Taiyaun Space Center, China (TSC)
Object type
Payload
Rocket body
Debris
Shape & HBR
Unknown shape, 0.1 m
Radar Cross Section
Small (<0.1 m²)

Expand to show TLE details & history
Last TLE update: 1 week ago

TLE from 1 week ago
0 CZ-6A DEB
1 56677U 22151AHD 26200.86236029  .00000191  00000-0  74320-4 0  9999
2 56677  98.6162 225.1442 0160417 317.2240  41.6550 14.34315640169584
Epoch: 2026-07-19T20:41Z
TLE epoch observation values (Epoch: 2026-07-19T20:41:47.929Z)
Latitude
-0.00008°
Longitude
-22.96016°
Altitude
695.328 km
Speed
7.553 km/s
True Right ascension
15h 00m 34s
True Declination
0° 00' 00"
Sunlit
Object was in daylight at epoch
Visualization orbit readout
Latitude
Unknown
Longitude
Unknown
Altitude
Unknown
Speed
Unknown
Apparent Right ascension
Unknown
Apparent Declination
Unknown
Sunlit
N/A
Visualization observer readout
Local Sidereal Time
01:04:56
Azimuth
Unknown
Elevation
Unknown
Doppler factor
Unknown
Orbital elements
Apogee altitude
889.216 km
Perigee altitude
659.735 km
Semi-major axis
7,152.612 km
Eccentricity
0.01604
Inclination
98.6162°
RAAN
225.1442°
Arg. of periapsis
317.224°
True anomaly
42.89525°
Mean anomaly
41.655°
Eccentric anomaly
42.27326°
Mean motion
3.58795 °/min
Orbital period
100.34 mins
BSTAR
0.00007432
Loading maneuver chart data...
Computing Atmospheric mass density...

Documentation

Showing up to 5 results
|